EHI
19 20 21 22 25 29 32 36 39 38 33 29 24 18 11 8 6 3 1 0 0 0 0 1 0 0 0 0 0 0 0 0 0 0 0 0 0 0 0 0 0 0 0
17 20 23 26 29 31 33 35 37 39 38 36 35 31 22 15 11 7 3 1 1 1 2 1 0 0 0 0 0 0 0 0 0 0 0 0 0 0 0 0 0 0 0
15 18 22 25 28 31 32 32 33 35 36 39 43 42 34 24 15 10 6 3 3 4 4 3 1 1 0 0 0 0 0 0 0 0 0 0 0 0 0 0 0 0 0
15 17 20 21 22 25 28 28 27 25 25 30 36 38 36 27 17 10 7 4 4 5 5 4 3 2 1 1 0 0 0 0 0 0 0 0 0 0 0 0 0 0 0
14 14 16 17 18 19 21 22 21 17 16 19 23 28 29 26 20 12 6 4 4 4 4 4 3 2 1 1 0 0 0 0 0 0 0 0 0 0 0 0 0 0 0
9 10 12 13 15 15 15 15 13 11 11 11 13 17 21 22 20 14 8 6 4 3 2 2 1 2 1 0 0 0 0 0 0 0 0 0 0 0 0 0 0 0 0
6 8 9 10 11 11 10 8 6 5 6 7 7 8 12 15 15 12 9 7 4 2 1 0 0 1 1 0 0 0 0 0 0 0 0 0 0 0 0 0 0 0 0
5 6 8 9 8 6 4 3 3 2 3 4 3 2 5 7 7 6 5 4 2 1 0 0 0 0 0 0 0 0 0 0 0 0 0 0 0 0 0 0 0 0 0
3 4 6 7 5 2 1 1 1 1 1 1 0 0 1 2 1 1 1 1 0 0 0 0 0 0 0 0 0 0 0 0 0 0 0 0 0 0 0 0 0 0 0
2 2 3 3 2 0 0 0 0 0 0 0 0 0 0 0 0 0 0 0 0 0 0 0 0 0 0 0 0 0 0 0 0 0 0 0 0 0 0 0 0 0 0
1 0 1 1 0 0 0 0 0 0 0 0 0 0 0 0 0 0 0 0 0 0 0 0 0 0 0 0 0 0 0 0 0 0 0 0 0 0 0 0 0 0 0
0 0 0 0 0 0 0 0 0 0 0 0 0 0 0 0 0 0 0 0 0 0 0 0 0 0 0 0 0 0 0 0 0 0 0 0 0 0 0 0 0 0 0
0 0 0 0 0 0 0 0 0 0 0 0 0 0 0 0 0 0 0 0 0 0 0 0 0 0 0 0 0 0 0 0 0 0 0 0 0 0 0 0 0 0 0
0 0 0 0 0 0 0 0 0 0 0 0 0 0 0 0 0 0 0 0 0 0 0 0 0 0 0 0 0 0 0 0 0 0 0 0 0 0 0 0 0 0 0
0 0 0 0 0 0 0 0 0 0 0 0 0 0 0 0 0 0 0 0 0 0 0 0 0 0 0 0 0 0 0 0 0 0 0 0 0 0 0 0 0 0 0
0 0 0 0 0 0 0 0 0 0 0 0 0 0 0 0 0 0 0 0 0 0 0 0 0 0 0 0 0 0 0 0 0 0 0 0 0 0 0 0 0 0 0
0 0 0 0 0 0 0 0 0 0 0 0 0 0 0 0 0 0 0 0 0 0 0 0 0 0 0 0 0 0 0 0 0 0 0 0 0 0 0 0 0 0 0
0 0 0 0 0 0 0 0 0 0 0 0 0 0 0 0 0 0 0 0 0 0 0 0 0 0 0 0 0 0 0 0 0 0 0 0 0 0 0 0 0 0 0
0 0 0 0 0 0 0 0 0 0 0 0 0 0 0 0 0 0 0 0 0 0 0 0 0 0 0 0 0 0 0 0 0 0 0 0 0 0 0 0 0 0 0
0 0 0 0 0 0 0 0 0 0 0 0 0 0 0 0 0 0 0 0 0 0 0 0 0 0 0 0 0 0 0 0 0 0 0 0 0 0 0 0 0 0 0
0 0 0 0 0 0 0 0 0 0 0 0 0 0 0 0 0 0 0 0 0 0 0 0 0 0 0 0 0 0 0 0 0 0 0 0 0 0 0 0 0 0 0
0 0 0 0 0 0 0 0 0 0 0 0 0 0 0 0 0 0 0 0 0 0 0 0 0 0 0 0 0 0 0 0 0 0 0 0 0 0 0 0 0 0 0
0 0 0 0 0 0 0 0 0 0 0 0 0 0 0 0 0 0 0 0 0 0 0 0 0 0 0 0 0 0 0 0 0 0 0 0 0 0 0 0 0 0 0
0 0 0 0 0 0 0 0 0 0 0 0 0 0 0 0 0 0 0 0 0 0 0 0 0 0 0 0 0 0 0 0 0 0 0 0 0 0 0 0 0 0 0
0 0 0 0 0 0 0 0 0 0 0 0 0 0 0 0 0 0 0 0 0 0 0 0 0 0 0 0 0 0 0 0 0 0 0 0 0 0 0 0 0 0 0
0 0 0 0 0 0 0 0 0 0 0 0 0 0 0 0 0 0 0 0 0 0 0 0 0 0 0 0 0 0 0 0 0 0 0 0 0 0 0 0 0 0 0
Wind_Speed
1 2 2 4 6 7 7 8 8 8 6 4 4 4 5 5 4 5 7 7 7 7 7 6 5 5 5 5 4 3 3 3 2 2 4 5 6 6 6 5 5 5 5
1 1 1 1 2 4 5 6 7 6 6 4 3 2 2 3 3 3 5 6 7 7 7 6 5 5 4 4 4 3 2 2 2 2 2 4 5 3 3 3 3 4 3
1 0 0 0 0 1 3 4 5 5 5 4 2 2 1 1 2 3 3 4 5 6 5 5 5 4 4 4 4 4 4 3 2 3 3 3 4 4 4 3 3 3 3
1 1 1 1 1 2 2 3 4 5 4 5 4 6 6 6 5 3 3 2 2 3 3 4 4 4 3 3 3 3 3 3 3 2 3 4 4 4 5 3 3 3 4
2 2 2 2 2 2 2 2 2 3 4 5 6 7 8 6 3 2 3 2 1 2 3 3 3 3 2 2 2 1 2 2 2 2 2 3 3 5 5 6 5 4 3
3 2 2 2 2 2 2 2 2 2 3 4 6 8 9 7 4 5 4 3 1 1 2 2 3 3 2 1 1 1 1 2 2 2 2 2 3 2 4 5 5 5 4
3 4 4 3 3 3 3 2 2 3 3 3 5 6 7 6 7 6 4 4 2 2 2 3 3 2 2 2 1 1 0 0 1 2 2 2 3 3 3 4 4 5 4
4 4 4 4 4 4 4 3 3 2 2 1 1 1 2 3 3 3 4 4 3 3 3 4 4 4 3 3 2 1 1 1 1 2 2 2 2 2 2 2 3 5 3
5 5 4 4 4 4 4 3 3 2 2 2 2 2 3 5 5 5 5 5 4 4 5 5 5 4 4 3 3 2 2 2 2 2 2 2 2 2 2 2 3 3 4
5 5 4 3 3 3 3 2 2 2 3 4 4 4 5 7 7 6 7 6 5 4 5 6 5 5 5 4 4 3 2 3 3 2 3 3 2 3 3 3 3 2 3
7 5 3 2 2 2 2 2 2 2 3 4 5 5 5 6 6 7 7 6 5 5 6 6 6 6 5 5 4 4 4 5 4 4 4 5 4 3 3 3 3 3 3
5 4 3 2 2 2 1 1 1 2 2 3 5 5 5 6 6 7 6 6 6 6 6 6 6 6 6 5 6 6 5 5 6 6 5 6 5 5 4 4 4 4 4
5 3 2 2 2 2 1 1 1 2 3 4 5 5 5 5 6 6 6 6 6 6 6 6 7 6 6 6 5 5 5 5 6 6 6 6 6 6 5 5 5 4 4
4 3 2 2 1 1 0 1 1 1 3 4 4 4 4 4 5 5 6 6 6 6 6 6 6 6 6 6 5 5 6 6 6 6 6 6 6 6 6 5 6 5 5
3 2 2 2 1 1 0 0 0 1 3 4 4 4 4 4 5 6 6 6 6 7 6 6 6 6 5 5 5 5 6 6 6 6 6 6 9 10 7 5 5 5 5
5 4 3 3 3 3 2 2 1 1 2 4 4 4 5 5 5 5 6 6 6 6 6 7 7 7 6 7 8 6 6 6 6 6 6 6 8 12 12 11 9 6 4
6 5 5 5 4 3 3 2 2 2 3 4 4 5 5 5 5 6 6 6 5 5 6 6 7 7 8 9 9 9 6 6 5 5 6 6 7 9 9 10 10 8 7
6 6 5 5 4 3 3 3 2 3 4 4 5 5 5 6 5 5 5 5 4 5 5 6 6 7 8 10 9 8 6 5 5 5 5 6 8 9 9 8 8 8 7
6 6 5 5 4 4 4 3 3 3 4 5 5 5 6 6 6 5 5 4 5 5 5 5 6 7 7 10 9 7 4 5 5 5 6 7 8 11 11 8 8 8 8
5 5 5 4 4 4 4 5 4 4 5 5 5 6 6 6 6 5 4 4 5 6 6 6 6 6 6 9 10 7 4 5 4 5 6 8 10 11 11 7 6 8 8
6 5 5 5 5 5 5 5 5 5 5 5 6 5 5 6 6 5 4 6 6 6 6 7 5 5 6 7 10 8 4 3 4 4 5 6 12 11 10 7 6 7 7
6 7 6 5 5 5 6 6 5 5 5 6 6 6 5 5 5 6 5 6 7 7 6 5 4 3 3 5 6 8 7 4 3 3 4 5 9 9 9 8 9 10 8
8 7 7 6 5 5 7 7 6 6 7 7 6 6 5 4 5 6 7 5 5 5 4 4 3 2 1 2 5 6 7 7 3 3 5 7 8 7 6 9 11 9 7
8 7 7 6 6 6 7 6 6 7 8 8 6 6 6 5 5 4 5 5 5 5 4 4 3 2 1 1 1 2 3 4 4 4 5 6 6 5 5 6 7 6 6
7 7 8 9 9 8 7 7 8 9 8 8 7 6 6 6 5 4 3 4 4 5 6 4 4 4 2 2 2 1 1 2 2 3 2 3 4 5 5 5 5 5 6
9 8 9 9 8 8 8 8 9 10 10 8 7 6 5 5 5 5 3 2 3 5 6 6 6 3 4 3 4 2 1 2 2 1 1 2 2 3 3 4 4 4 5
Wind_Direction
159 131 169 188 191 197 199 202 205 207 195 192 201 210 216 213 216 220 218 212 211 207 202 211 208 202 212 220 219 221 238 247 228 273 294 288 274 269 269 271 280 288 292
67 68 111 143 197 210 211 210 215 209 206 207 200 214 223 222 217 217 212 207 204 203 204 203 206 202 211 223 219 209 223 242 205 216 297 310 317 308 284 284 283 297 306
116 39 9 36 33 248 235 225 222 212 205 203 196 196 191 224 211 217 220 212 203 203 200 198 200 200 202 219 220 211 219 246 244 202 221 264 280 310 297 287 288 301 307
14 3 1 323 267 253 255 244 231 217 204 197 206 218 221 226 225 215 225 220 202 198 193 186 187 190 192 206 221 208 212 227 258 244 225 234 248 274 299 302 300 303 297
335 329 316 287 274 265 256 255 252 246 224 215 215 232 237 233 226 212 219 222 215 184 170 162 158 163 171 188 196 188 202 212 238 246 250 254 251 241 261 288 300 304 284
307 295 286 273 275 287 285 276 270 273 254 235 231 229 227 221 215 222 211 204 180 144 140 137 136 137 138 149 155 171 209 221 239 247 241 249 261 265 259 274 291 296 291
293 298 303 310 313 319 318 307 292 284 277 243 229 228 222 211 208 209 193 173 161 139 127 114 115 109 106 102 99 105 62 267 265 269 268 262 261 265 267 276 287 289 290
275 282 294 311 320 330 336 332 321 308 302 283 201 201 196 178 169 161 143 138 127 119 105 99 93 87 82 83 83 80 37 6 320 306 301 292 292 284 279 277 290 297 292
269 276 293 310 320 327 333 337 340 356 18 23 61 87 102 106 105 103 103 101 98 100 95 90 82 74 71 71 75 62 31 12 359 344 340 327 322 321 310 298 287 291 301
263 269 279 296 313 317 320 351 16 27 54 43 52 69 71 84 95 99 94 90 88 90 90 84 80 73 66 65 70 60 39 44 26 16 19 15 358 351 346 330 311 290 285
259 263 269 288 313 331 349 6 33 47 62 71 75 76 76 84 87 87 86 90 86 85 86 85 81 74 65 61 66 57 50 49 37 31 32 21 8 3 352 345 338 329 305
257 258 264 284 305 313 351 18 56 76 78 85 87 83 82 85 86 87 88 90 86 81 86 87 80 73 65 59 61 57 52 50 41 31 29 17 8 4 352 348 344 332 317
256 251 251 257 279 299 326 2 61 89 97 102 100 91 85 86 88 89 89 89 91 86 82 81 77 69 62 60 58 62 57 52 47 38 32 18 13 5 351 345 341 329 324
257 240 235 235 232 312 356 342 71 105 112 113 110 108 103 100 99 97 94 93 94 90 83 79 75 70 64 58 57 61 58 53 48 41 36 28 19 4 348 344 340 334 332
250 231 220 224 187 170 179 120 33 117 125 128 123 119 116 113 109 103 97 92 87 88 88 83 70 61 57 49 59 63 63 55 46 36 27 23 24 15 2 352 341 341 340
233 225 207 205 205 198 185 172 169 146 136 138 131 127 126 120 113 109 103 95 88 85 82 76 72 59 46 46 62 75 69 59 49 32 13 10 18 5 0 357 357 357 348
225 213 206 198 200 202 197 195 186 152 140 137 133 131 130 123 118 115 106 100 97 93 85 78 75 64 44 49 60 69 75 65 51 37 21 13 6 4 356 350 355 2 2
217 210 200 195 192 188 187 184 175 155 144 142 137 131 129 125 119 115 112 106 102 97 91 83 78 69 45 45 57 66 68 63 50 38 25 12 1 1 354 350 356 355 355
206 201 194 186 177 181 179 164 161 150 143 144 144 142 139 134 129 123 116 107 106 99 93 88 82 75 48 43 52 60 59 52 40 29 25 18 7 355 359 5 357 353 351
196 189 179 167 174 186 166 158 157 153 158 157 152 147 144 143 140 134 121 110 112 110 106 93 82 80 64 46 49 55 56 46 30 21 18 18 9 359 4 10 3 354 340
194 181 173 179 191 175 160 166 166 172 168 151 142 142 144 143 137 127 119 122 117 113 108 101 86 74 66 53 51 53 56 46 32 22 10 1 358 3 8 14 11 342 327
188 179 178 193 190 171 166 175 188 178 154 148 145 145 146 144 137 129 123 126 126 122 119 111 95 71 58 57 53 54 53 48 45 18 355 348 356 3 9 15 6 2 3
190 182 181 187 188 182 176 184 191 163 152 148 150 148 140 131 135 137 136 131 131 131 131 127 121 108 68 49 48 47 42 38 37 359 351 358 6 7 10 7 6 10 13
192 180 174 184 195 193 190 191 172 161 155 154 152 148 143 137 133 135 143 145 150 147 147 147 146 141 119 65 40 31 24 17 16 2 355 4 13 20 11 4 7 11 10
190 180 184 192 197 190 191 184 168 160 159 159 158 156 153 149 144 140 149 158 170 169 162 170 165 159 165 203 178 141 28 356 347 344 1 16 13 12 10 6 4 4 7
188 187 193 197 195 187 190 184 174 168 163 164 167 165 160 156 152 144 123 108 162 180 179 169 165 180 188 174 173 187 261 318 341 48 23 1 355 353 352 353 355 1 4